Location: Bennemühlen
(52.5740°N, 9.7135°E)
Time: 03:32:29
(UTC+00:00)

A-11 Canister half - Pass Details

Date: 25 February 2026
Orbit: 1512 x 1687 km, 47.2° (Epoch: 7 March)

Event Time Altitude Azimuth Distance (km) Brightness Sun altitude
Rises 19:49:35 0° 246° (WSW) 4,937 12.2 -27.2°
Reaches altitude 10° 19:52:48 10° 243° (WSW) 3,950 11.6 -27.6°
Maximum altitude 20:02:43 61° 166° (SSE) 1,861 9.1 -29.0°
Enters shadow 20:04:35 54° 127° (SE) 1,970 9.1 -29.3°
Drops below altitude 10° 20:12:27 10° 90° (E) 3,880 - -30.3°
Sets 20:15:35 0° 87° (E) 4,846 - -30.7°
